Tracking 28790 objects as of 18-Apr-2024
HD Live streaming from Space Station
objects crossing your sky now

COSMOS 511

Track COSMOS 511 now!
10-day predictions
COSMOS 511 is classified as:


NORAD ID: 6124
Int'l Code: 1972-057H
Perigee: 1,501.6 km
Apogee: 1,552.5 km
Inclination: 74.0 °
Period: 116.4 minutes
Semi major axis: 7898 km
RCS: 0.6766 m2 (medium)
Launch date: July 20, 1972
Source: Commonwealth of Independent States (former USSR) (CIS)
Launch site: PLESETSK MISSILE AND SPACE COMPLEX (PKMTR)
Your satellite tracking list
Your tracking list is empty




NASA's NSSDC Master Catalog

Two Line Element Set (TLE):
1  6124U 72057H   24109.56732264 -.00000011  00000-0  31585-4 0  9994
2  6124  74.0287 196.9203 0032242 268.8345 199.1040 12.36865076336653
Source of the keplerian elements: AFSPC